Home   Weather   Feldbach   Past weeks
Flag for Austria

Past Weather in Feldbach, Styria, Austria — Yesterday and Last 2 Weeks

Now
79 °F

Scattered clouds.


Feels Like: 80 °F
Forecast: 69 / 49 °F
Wind: 2 mph from North

Location: Graz-Thalerhof-Flughafen

Current Time: Oct 21, 2019 at 6:03:47 pm

Latest Report: Oct 21, 2019 at 3:00 pm


Visibility: 28 mi

Pressure: 30.02 "Hg

Humidity: 40%

Dew Point: 53 °F

Location of FeldbachLocation

Past Weather in Feldbach — Graph

°F

Feldbach Temperature Yesterday

Maximum temperature yesterday: 73 °F (at 2:00 pm)
Minimum temperature yesterday: 47 °F (at 7:00 am)
Average temperature yesterday: 59 °F

High & Low Weather Summary for the Past Weeks

 TemperatureHumidityPressure
High79 °F (Oct 21, 3:00 pm)100% (Oct 12, 3:00 am)30.32 "Hg (Oct 12, 3:00 am)
Low38 °F (Oct 9, 4:00 am)40% (Oct 21, 3:00 pm)29.80 "Hg (Oct 9, 5:00 pm)
Average54 °F82%30.04 "Hg
* Reported Oct 6 4:00 pm — Oct 21 3:00 pm, Feldbach. Weather by CustomWeather, © 2019

Note: Actual official high and low records may vary slightly from our data, if they occured in-between our weather recording intervals... More about our weather records

Advertising

Feldbach Weather History for the Previous 24 Hours

Scroll right to see more
 ConditionsComfort  
Time TempWeatherWind HumidityBarometerVisibility
3:00 pm
Mon, Oct 21
79 °FScattered clouds.2 mph40%30.02 "Hg28 mi
2:00 pm78 °FScattered clouds.2 mph42%30.03 "Hg31 mi
1:00 pm76 °FScattered clouds.2 mph46%30.04 "Hg28 mi
12:00 pm71 °FPartly sunny.1 mph54%30.06 "Hg28 mi
11:00 am65 °FScattered clouds.1 mph63%30.07 "Hg22 mi
10:00 am60 °FScattered clouds.1 mph72%30.07 "Hg22 mi
9:00 am53 °FScattered clouds.1 mph83%30.08 "Hg9 mi
8:00 am50 °FPartly sunny.2 mph89%30.07 "Hg11 mi
7:00 am49 °FPassing clouds.3 mph89%30.06 "Hg17 mi
6:00 am47 °FCool.2 mph92%30.06 "Hg14 mi
5:00 am50 °FCool.1 mph92%30.06 "Hg18 mi
4:00 am51 °FPassing clouds.1 mph89%30.05 "Hg17 mi
3:00 am53 °FPassing clouds.2 mph85%30.04 "Hg19 mi
2:00 am53 °FCool.1 mph84%30.03 "Hg25 mi
1:00 am55 °FCool.1 mph80%30.02 "Hg25 mi
12:00 am59 °FCool.2 mph71%30.01 "Hg31 mi
11:00 pm
Sun, Oct 20
60 °FCool.3 mph67%29.98 "Hg31 mi
10:00 pm61 °FCool.5 mph66%29.98 "Hg34 mi
9:00 pm64 °FMild.6 mph59%29.96 "Hg37 mi
8:00 pm65 °FPassing clouds.7 mph59%29.95 "Hg34 mi
7:00 pm67 °FOvercast.7 mph56%29.95 "Hg34 mi
6:00 pm68 °FOvercast.6 mph56%29.94 "Hg31 mi
Weather by CustomWeather, © 2019

See weather overview